This is the latest recevied weather packets stored in our database for station/object KC3DGM. If no packets are shown the sender has not sent any weather packets the latest 10 day(s).
| Time | Temp. | Humidity | Pressure | Rain* | Wind** | Luminosity | Snow |
|---|---|---|---|---|---|---|---|
| 1777568148 | 7.78° C | 78% | 984.3 hPa | 0 mm | - | 177 W/m² | - |
| 1777567845 | 7.78° C | 77% | 984.1 hPa | 0 mm | - | 162 W/m² | - |
| 1777567541 | 7.78° C | 78% | 984.2 hPa | 0 mm | - | 125 W/m² | - |
| 1777567238 | 8.33° C | 79% | 984.1 hPa | 0 mm | - | 178 W/m² | - |
| 1777566937 | 8.33° C | 78% | 983.8 hPa | 0 mm | - | 158 W/m² | - |
| 1777566634 | 8.89° C | 78% | 984.2 hPa | 0 mm | - | 177 W/m² | - |
| 1777566332 | 8.33° C | 79% | 984.3 hPa | 0 mm | - | 422 W/m² | - |
| 1777566029 | 8.33° C | 79% | 984.2 hPa | 0 mm | - | 350 W/m² | - |
| 1777565724 | 7.78° C | 83% | 984.2 hPa | 0 mm | - | 441 W/m² | - |
| 1777565421 | 7.22° C | 83% | 984.2 hPa | 0 mm | - | 271 W/m² | - |
| 1777565117 | 6.67° C | 85% | 984.3 hPa | 0 mm | - | 154 W/m² | - |
| 1777564814 | 6.67° C | 86% | 984.3 hPa | 0 mm | - | 49 W/m² | - |
| 1777564509 | 6.67° C | 87% | 984.2 hPa | 0 mm | - | 42 W/m² | - |
| 1777564203 | 6.67° C | 86% | 984.2 hPa | 0 mm | - | 44 W/m² | - |
| 1777563900 | 6.67° C | 87% | 984.3 hPa | 0 mm | - | 58 W/m² | - |
| 1777563591 | 6.67° C | 86% | 984.2 hPa | 0 mm | - | 46 W/m² | - |
| 1777563291 | 6.67° C | 87% | 983.9 hPa | 0 mm | - | 78 W/m² | - |
| 1777562987 | 6.67° C | 88% | 984.2 hPa | 0 mm | - | 131 W/m² | - |
| 1777562683 | 6.67° C | 89% | 983.8 hPa | 0 mm | - | 145 W/m² | - |
| 1777562378 | 6.11° C | 89% | 984 hPa | 0 mm | - | 73 W/m² | - |
| 1777562073 | 6.11° C | 89% | 984 hPa | 0 mm | - | 35 W/m² | - |
| 1777561771 | 6.11° C | 89% | 983.7 hPa | 0 mm | - | 28 W/m² | - |
| 1777561467 | 6.67° C | 89% | 984 hPa | 0 mm | - | 32 W/m² | - |
| 1777561161 | 6.11° C | 88% | 983.8 hPa | 0 mm | - | 58 W/m² | - |
| 1777560856 | 6.67° C | 89% | 983.4 hPa | 0 mm | - | 84 W/m² | - |
* Rain latest hour (hover to see other rain measurements)
** Current wind speed in m/s (hover to see current wind gust speed)